Find Starlink 30588

NORAD ID: 58062 Int'l Des: 2023-158 Owner: SPXS Country: US Constellation: starlink operational
LEOCIRCULAR

实时位置

正在加载3D地球...

关于 Starlink 30588

正在加载描述...

即将过境

Passes for default location (London). Set your location on the main map for personalized predictions.

高度历史

Loading altitude history...

两行轨道根数

1 58062U 23158M 26132.98620325 -.00006054 00000-0 -21072-3 0 9991
2 58062 43.0040 23.8967 0001166 286.8039 73.2684 15.27566854143400
Epoch: May 12, 2026 • Age: 13 hours

当前状态

高度 483.9 km
速度 7.63 km/s
星下点 26.45°N, 105.01°E
发射日期 Oct 13, 2023
运行时间 2.5 years
类型 internet

技术详情

分类 Payload
质量 730.00 kg
干质量 700.00 kg
总质量 730.00 kg
长度 0.30 m
直径 4.10 m
跨度 29.00 m
形状 Box + pan
制造商 SPXS
平台类型 Starlink V2M
阶段状态 In Orbit
所有者/国家 SPXS/US

Most Searched